Location: Santa Cristina
(46.5667°N, 11.7167°E)
Time: 05:59:55
(UTC+00:00)

CZ-3B R/B - Pass Details

Date: 21 April 2021
Orbit: 305 x 17370 km, 54.8° (Epoch: 15 May)

Event Time Altitude Azimuth Distance (km) Brightness Sun altitude
Exits shadow 03:24:08 - 238° (WSW) 8,042 7.0 -8.9°
Reaches altitude 10° 03:24:49 10° 238° (WSW) 7,800 6.9 -8.8°
Maximum altitude 03:42:03 78° 326° (NW) 1,209 3.5 -6.1°
Drops below altitude 10° 03:46:10 10° 54° (NE) 2,044 6.4 -5.5°
Sets 03:47:30 0° 56° (NE) 2,643 7.5 -5.3°
